Regional Weather Roundup
Issued by NWS

Home | Current Version | Previous Version | Text Only | Print | Product List | Glossary Off
Versions: 1 2 3 4 5 6 7 8 9 10 11 12 13 14 15 16 17 18 19 20 21 22 23 24 25 26 27 28 29 30 31 32 33 34 35 36 37 38 39 40 41 42 43 44 45 46 47 48 49 50

000
ASUS45 KABQ 180901
RWRNM
WEATHER ROUNDUP FOR NEW MEXICO
NATIONAL WEATHER SERVICE ALBUQUERQUE NM
300 AM MDT FRI APR 18 2014

NOTE: "FAIR" MEANS FEW OR NO CLOUDS BELOW 12,000 FEET AGL WITH NO
       SIGNIFICANT WEATHER OR OBSTRUCTIONS TO VISION.

      THIS PRODUCT IS RELEASED AS TWO VERSIONS.  ONE VERSION NEAR
      THE TOP OF THE HOUR CONTAINING PRELIMINARY DATA FROM ALBUQUERQUE
      AND OTHER STATIONS.  A FINAL VERSION WITH ADDITIONAL DATA IS
      ISSUED ABOUT 10 MINUTES AFTER THE HOUR.

NMZ501-503-504-510>518-181000-
NORTHWEST PLATEAU/NORTHCENTRAL MOUNTAINS

CITY           SKY/WX    TMP DP  RH WIND       PRES   REMARKS
FARMINGTON     CLEAR     42  20  41 E6        30.09F
LOS ALAMOS     CLEAR     42  26  53 S9        30.22F
SANTA FE       CLEAR     45  26  47 SE12      30.20F
TAOS           CLEAR     37  21  52 N7        30.25F WCI  32
ANGEL FIRE     FAIR      34  27  75 CALM      30.25S

$$
NMZ402-403-502-505>509-181000-
WESTCENTRAL MOUNTAINS/SOUTHWEST MOUNTAINS

CITY           SKY/WX    TMP DP  RH WIND       PRES   REMARKS
GALLUP         CLEAR     38  15  39 N3        30.14F
SILVER CITY    CLOUDY    54  23  30 SE5       30.15F

$$
NMZ407-409-411-412-181000-
SOUTHERN DESERTS

CITY           SKY/WX    TMP DP  RH WIND       PRES   REMARKS
DEMING         MOCLDY    58  26  29 E12       30.06F
LAS CRUCES     MOCLDY    59  28  30 SE9       30.10F
HOLLOMAN AFB   PTCLDY    49  25  39 W6        30.09S
T OR C         MOCLDY    52  20  28 W6        30.10F

$$
NMZ519>523-181000-
CENTRAL VALLEYS/CENTRAL HIGHLANDS

CITY           SKY/WX    TMP DP  RH WIND       PRES   REMARKS
ALBUQUERQUE    PTCLDY    50  27  40 N9        30.15F
DOUBLE EAGLE   PTCLDY    42  25  49 N6        30.17F
CLINES CORNERS PTCLDY    36  27  69 S9        30.21F WCI  29
BELEN          FAIR      50  26  38 SE6       30.14S
SOCORRO        NOT AVBL

$$
NMZ524>526-539-540-181000-
SOUTHCENTRAL MOUNTAINS

CITY           SKY/WX    TMP DP  RH WIND       PRES   REMARKS
RUIDOSO        NOT AVBL

$$
NMZ527>531-181000-
NORTHEAST HIGHLANDS/NORTHEAST PLAINS

CITY           SKY/WX    TMP DP  RH WIND       PRES   REMARKS
LAS VEGAS      CLEAR     34  27  75 SW15      30.22F WCI  24
RATON          CLEAR     33  30  88 N7        30.19F WCI  27
CLAYTON        CLEAR     36  32  85 SW12      30.17F WCI  28

$$
NMZ532>537-181000-
EASTCENTRAL PLAINS

CITY           SKY/WX    TMP DP  RH WIND       PRES   REMARKS
TUCUMCARI      CLEAR     40  33  76 SW6       30.20S
CANNON AFB     CLEAR     36  35  93 SE3       30.22F
CLOVIS AIRPORT CLEAR     36  30  80 E3        30.24F

$$
NMZ028-029-538-181000-
SOUTHEAST PLAINS

CITY           SKY/WX    TMP DP  RH WIND       PRES   REMARKS
ROSWELL        CLEAR     48  39  71 S9        30.20S
CARLSBAD       CLOUDY    54  42  64 E8        30.18F
HOBBS          CLEAR     43  41  93 E6        30.22F


$$



USA.gov is the U.S. government's official web portal to all federal, state and local government web resources and services.